Voltar ao catálogo

FENGYUN 1C DEB

AtivoSSO
NORAD 31738·DEBRIS·🇨🇳 China

Lançado May 10, 1999 de Taiyuan Satellite Launch Center

Loading…

Próximas Passagens (próximas 24 horas)

TLE

AtualizadoSource: Space-Track

Época: Sep 12, 2026, 22:48 UTC

1 31738U 99025CEM 26255.95042582  .00001086  00000-0  67853-3 0  9999
2 31738  99.3422 327.9916 0305410  87.3898 276.2175 13.86123449660559

Acompanhe FENGYUN 1C DEB em tempo real com AllMySat

Download on the App Store